Airfield :
LOGIN :

Register | Disclaimer

   EN    FR    IT 

 










Legend :    VFR   Marginal VFR   IFR   Intensive IFR   Very Intensive IFR
Visi :
Ceiling :
>= 8 km
>= 3000ft
5 to 8 km
1000 to 3000 ft
1500m to 5 km
500 to 1000 ft
800 to 1500m
200 to 500 ft
< 800m
< 200 ft
Symbols :   Thunderstorms  Fog  Heavy snow  Heavy precipitations  Wind > 20 kt
SIGMETs :     Misc.  Thunderstorms  Icing  Turbulence  Mountain Waves  Volcanic Ashes






- Airport Elevation : 290 ft
- IATA code : LAI


LFRO - Lannion

CURRENT METAR :
  • 162300Z AUTO 31008KT 9999 OVC036 08/04 Q1025

EXPIRED METARs :
  • 162230Z AUTO 31009KT 9999 FEW025 BKN038 BKN044 08/05 Q1025
  • 162200Z AUTO 31008KT 9999 SCT024 BKN030 BKN039 08/05 Q1025
  • 162130Z AUTO 31008KT 9999 FEW024 BKN042 08/05 Q1025
  • 162100Z AUTO 32007KT 290V350 9999 FEW023 SCT038 07/05 Q1024
  • 162030Z AUTO 32005KT 9999 FEW023 SCT036 08/05 Q1024

Expired Forecast.



MET'MAP, your aeronautical weather chart ! - Copyright ORBIFLY December 2007 - Disclaimer

ORBIFLY MET'MAP TEAM :

Programming & Development : Alexandra Zaïnal
Concept & original design : Baudouin d'Aumeries
Assistance for programming : Marc-Olivier Méhu
Technical & hardware support : Manuel Goepfert

Contact : metmap@orbifly.com




SOURCES & CREDITS :

   NOAA